Miscellaneous Local Product
Issued by NWS Hastings, NE

Home | Current Version | Previous Version | Graphics & Text | Print | Product List | Glossary On
Versions: 1 2 3 4 5 6 7 8 9 10 11 12 13 14 15 16 17 18 19 20 21 22 23 24 25 26 27 28 29 30 31 32 33 34 35 36 37 38 39 40 41 42 43 44 45 46 47 48 49 50
000
AXUS43 KGID 241502
MISGRI

GID CWA HOURLY WEATHER ROUNDUP
NATIONAL WEATHER SERVICE HASTINGS NE
1000 AM CDT FRI OCT 24 2014

NOTE: "FAIR" INDICATES FEW OR NO CLOUDS BELOW 12,000 FEET WITH NO
SIGNIFICANT WEATHER AND/OR OBSTRUCTIONS TO VISIBILITY.

...SOUTH CENTRAL NEBRASKA...

CITY           SKY/WX    TMP DP  RH WIND       PRES   REMARKS
GRAND ISLAND   CLOUDY    58  53  84 W9        29.95R HAZE
HASTINGS       CLOUDY    57  52  83 SW6       29.96R
KEARNEY        CLOUDY    55  48  76 SW13      29.98R
ORD            CLOUDY    49  47  93 NW6       29.95R
YORK           CLOUDY    59  57  94 SW8       29.95S FOG
AURORA         CLOUDY    58  56  95 SW6       29.95S FOG
LEXINGTON      CLOUDY    53  50  89 NW5       29.99S
HOLDREGE       CLOUDY    56  51  83 CALM      29.99R
HEBRON         CLOUDY    60  58  91 SW7       29.97S FOG

...NEBRASKA PANHANDLE...

CITY           SKY/WX    TMP DP  RH WIND       PRES   REMARKS
CHADRON        PTSUNNY   54  37  52 SW9       30.02R
ALLIANCE       CLOUDY    53  38  56 W13       30.05R
SCOTTSBLUFF    CLOUDY    55  38  52 NW8       30.08R
SIDNEY         CLOUDY    58  39  49 NW6       30.10R

...WESTERN AND NORTH CENTRAL NEBRASKA...

CITY           SKY/WX    TMP DP  RH WIND       PRES   REMARKS
VALENTINE      CLOUDY    48  40  73 SW6       29.96R
AINSWORTH      CLOUDY    52  39  63 W5        29.97R
ONEILL         CLOUDY    53  47  77 W3        29.94R
BROKEN BOW     CLOUDY    58  44  60 W7        29.96R
IMPERIAL       PTSUNNY   57  40  52 CALM      30.06R
NORTH PLATTE   CLOUDY    47  43  86 W5        30.02R
MCCOOK         PTSUNNY   55  45  68 W10       30.02R

...EASTERN NEBRASKA...

CITY           SKY/WX    TMP DP  RH WIND       PRES   REMARKS
NORFOLK        CLOUDY    57  54  89 CALM      29.93R FOG
SO SIOUX CITY  CLOUDY    57  55  93 CALM      29.91R
TEKAMAH        CLOUDY    62  59  90 S9        29.92R FOG
COLUMBUS       CLOUDY    59  54  82 SW8       29.95R
ALBION         CLOUDY    55  52  90 NW3       29.93R FOG
OMAHA EPPLEY   CLOUDY    62  58  86 S8        29.94R FOG
OFFUTT AFB     CLOUDY    62  62 100 S8        29.94R
MILLARD        CLOUDY    61  58  90 S3        29.93S FOG
LINCOLN        CLOUDY    63  58  83 S8        29.96R HAZE
NEBRASKA CITY  CLOUDY    60  60 100 SW12      29.97S FOG
BEATRICE       CLOUDY    60  59  96 S10       29.97F FOG
FALLS CITY     PTSUNNY   62  59  90 S10       29.99S

...NORTHERN KANSAS...

CITY           SKY/WX    TMP DP  RH WIND       PRES   REMARKS
GOODLAND       SUNNY     62  44  51 W8        30.09R
HILL CITY      CLOUDY    56  52  86 W7        30.02R
NORTON         SUNNY     55  48  76 SW7       30.01
PHILLIPSBURG   FOG       54  54 100 CALM      30.01R VSB 1/2
SMITH CENTER   FOG       54  54 100 SW6       30.01R VSB 3/4
BELOIT         SUNNY     57  57 100 S3        30.00S
HAYS           CLOUDY    57  52  82 SW6       30.04R
RUSSELL        CLOUDY    60  57  89 SW12      30.02R
CONCORDIA      CLOUDY    62  61  96 SW9       30.00R FOG
SALINA         CLOUDY    62  59  90 S10       30.03S FOG
TOPEKA         CLOUDY    63  60  90 S8        30.03F



USA.gov is the U.S. government's official web portal to all federal, state and local government web resources and services.